User: anonymous   Login
Location: Cran-Gévrier
(45.9039°N, 6.1012°E)
Time: 19:49:36
(UTC+00:00)
Language:

MINOTAUR 4 R/B - Orbit

View from above orbital plane
View from above orbital plane
View from above satellite
View from above satellite

Ground track
Ground track

The orbit data is extracted from the following two-line orbital elements,

1 37169U 10048B   24104.62055484  .00042394  00000-0  55764-3 0  9996
2 37169  97.9493 348.1923 0003645  56.9990 303.1614 15.58363411754073
Epoch (UTC): 13 April 2024 14:53:35
Eccentricity: 0.0003645
inclination: 97.9493°
perigee height: 390 km
apogee height: 395 km
right ascension of ascending node: 348.1923°
argument of perigee: 56.9990°
revolutions per day: 15.58363411
mean anomaly at epoch: 303.1614°
orbit number at epoch: 75407

The dashed part of the orbit path shows where the satellite is in the earth's shadow,  

DLR